Time,TemperatureF,DewpointF,PressureIn,WindDirection,WindDirectionDegrees,WindSpeedMPH,WindSpeedGustMPH,Humidity,HourlyPrecipIn,Conditions,Clouds,dailyrainin,SoftwareType,DateUTC
2013-02-22 00:15:00,24.6,21.0,30.08,South,173,1.0,-999.0,86,-99.99,,,0.00,weatherlink.com 1.10,2013-02-22 07:15:00,
2013-02-22 00:30:00,25.1,22.0,30.07,SSW,193,1.0,-999.0,86,-99.99,,,0.00,weatherlink.com 1.10,2013-02-22 07:30:00,
2013-02-22 00:45:00,25.2,22.0,30.07,South,183,6.0,-999.0,86,-99.99,,,0.00,weatherlink.com 1.10,2013-02-22 07:45:00,
2013-02-22 01:00:00,25.3,22.0,30.06,SSW,199,2.0,-999.0,86,-99.99,,,0.00,weatherlink.com 1.10,2013-02-22 08:00:00,
2013-02-22 01:15:00,25.1,22.0,30.05,SSW,192,1.0,-999.0,86,-99.99,,,0.00,weatherlink.com 1.10,2013-02-22 08:15:00,
2013-02-22 01:30:00,24.7,21.0,30.05,South,182,2.0,-999.0,87,-99.99,,,0.00,weatherlink.com 1.10,2013-02-22 08:30:00,
2013-02-22 01:45:00,24.0,21.0,30.05,South,172,0.0,-999.0,87,-99.99,,,0.00,weatherlink.com 1.10,2013-02-22 08:45:00,
2013-02-22 02:00:00,23.6,21.0,30.05,South,191,1.0,-999.0,88,-99.99,,,0.00,weatherlink.com 1.10,2013-02-22 09:00:00,
2013-02-22 02:15:00,23.5,21.0,30.05,SSW,199,0.0,-999.0,88,-99.99,,,0.00,weatherlink.com 1.10,2013-02-22 09:15:00,
2013-02-22 02:30:00,23.3,20.0,30.04,SE,142,0.0,-999.0,88,-99.99,,,0.00,weatherlink.com 1.10,2013-02-22 09:30:00,
2013-02-22 02:45:00,22.9,20.0,30.04,SE,136,0.0,-999.0,88,-99.99,,,0.00,weatherlink.com 1.10,2013-02-22 09:45:00,
2013-02-22 03:00:00,22.0,19.0,30.04,SE,129,0.0,-999.0,89,-99.99,,,0.00,weatherlink.com 1.10,2013-02-22 10:00:00,
2013-02-22 03:15:00,21.3,19.0,30.03,SSE,153,0.0,-999.0,89,-99.99,,,0.00,weatherlink.com 1.10,2013-02-22 10:15:00,
2013-02-22 03:30:00,22.0,19.0,30.04,SE,134,1.0,-999.0,87,-99.99,,,0.00,weatherlink.com 1.10,2013-02-22 10:30:00,
2013-02-22 03:45:00,21.3,18.0,30.04,SE,134,1.0,-999.0,87,-99.99,,,0.00,weatherlink.com 1.10,2013-02-22 10:45:00,
2013-02-22 04:00:00,20.9,18.0,30.04,SE,134,1.0,-999.0,87,-99.99,,,0.00,weatherlink.com 1.10,2013-02-22 11:00:00,
2013-02-22 04:15:00,20.7,18.0,30.03,SE,134,1.0,-999.0,88,-99.99,,,0.00,weatherlink.com 1.10,2013-02-22 11:15:00,
2013-02-22 04:30:00,20.5,18.0,30.04,SE,134,0.0,-999.0,88,-99.99,,,0.00,weatherlink.com 1.10,2013-02-22 11:30:00,
2013-02-22 04:45:00,20.8,18.0,30.03,SE,134,0.0,-999.0,89,-99.99,,,0.00,weatherlink.com 1.10,2013-02-22 11:45:00,
2013-02-22 05:00:00,20.7,18.0,30.04,SE,134,0.0,-999.0,88,-99.99,,,0.00,weatherlink.com 1.10,2013-02-22 12:00:00,
2013-02-22 05:15:00,20.3,17.0,30.04,SE,134,0.0,-999.0,88,-99.99,,,0.00,weatherlink.com 1.10,2013-02-22 12:15:00,
2013-02-22 05:30:00,19.7,17.0,30.04,SE,134,0.0,-999.0,87,-99.99,,,0.00,weatherlink.com 1.10,2013-02-22 12:30:00,
2013-02-22 05:45:00,19.2,16.0,30.03,SE,134,0.0,-999.0,87,-99.99,,,0.00,weatherlink.com 1.10,2013-02-22 12:45:00,
2013-02-22 06:00:00,18.6,15.0,30.03,SE,134,0.0,-999.0,87,-99.99,,,0.00,weatherlink.com 1.10,2013-02-22 13:00:00,
2013-02-22 06:15:00,18.1,15.0,30.03,SE,134,0.0,-999.0,87,-99.99,,,0.00,weatherlink.com 1.10,2013-02-22 13:15:00,
2013-02-22 06:30:00,17.5,14.0,30.03,SE,134,0.0,-999.0,87,-99.99,,,0.00,weatherlink.com 1.10,2013-02-22 13:30:00,
2013-02-22 06:45:00,16.9,14.0,30.03,SE,134,0.0,-999.0,87,-99.99,,,0.00,weatherlink.com 1.10,2013-02-22 13:45:00,
2013-02-22 07:00:00,16.2,13.0,30.03,SE,134,0.0,-999.0,88,-99.99,,,0.00,weatherlink.com 1.10,2013-02-22 14:00:00,
2013-02-22 07:15:00,16.0,13.0,30.03,SE,134,0.0,-999.0,88,-99.99,,,0.00,weatherlink.com 1.10,2013-02-22 14:15:00,
2013-02-22 07:30:00,16.6,14.0,30.03,SE,134,0.0,-999.0,90,-99.99,,,0.00,weatherlink.com 1.10,2013-02-22 14:30:00,
2013-02-22 07:45:00,18.2,16.0,30.02,SE,134,2.0,-999.0,91,-99.99,,,0.00,weatherlink.com 1.10,2013-02-22 14:45:00,
2013-02-22 08:00:00,19.8,18.0,30.03,SE,134,1.0,-999.0,91,-99.99,,,0.00,weatherlink.com 1.10,2013-02-22 15:00:00,
2013-02-22 08:15:00,20.9,19.0,30.02,SE,134,4.0,-999.0,90,-99.99,,,0.00,weatherlink.com 1.10,2013-02-22 15:15:00,
2013-02-22 08:30:00,21.4,19.0,30.02,SE,134,0.0,-999.0,89,-99.99,,,0.00,weatherlink.com 1.10,2013-02-22 15:30:00,
2013-02-22 08:45:00,22.7,19.0,30.02,SE,134,2.0,-999.0,87,-99.99,,,0.00,weatherlink.com 1.10,2013-02-22 15:45:00,
2013-02-22 09:00:00,24.1,20.0,30.02,SE,134,3.0,-999.0,84,-99.99,,,0.00,weatherlink.com 1.10,2013-02-22 16:00:00,
2013-02-22 09:16:00,24.7,20.0,30.01,SE,139,4.0,-999.0,82,-99.99,,,0.00,weatherlink.com 1.10,2013-02-22 16:16:00,
2013-02-22 09:31:00,25.7,21.0,30.01,SE,144,4.0,-999.0,81,-99.99,,,0.00,weatherlink.com 1.10,2013-02-22 16:31:00,
2013-02-22 09:46:00,26.9,21.0,30.00,SSE,148,4.0,-999.0,78,-99.99,,,0.00,weatherlink.com 1.10,2013-02-22 16:46:00,
2013-02-22 10:01:00,27.7,22.0,29.99,SSE,148,5.0,-999.0,78,-99.99,,,0.00,weatherlink.com 1.10,2013-02-22 17:01:00,
2013-02-22 10:16:00,28.7,22.0,29.99,SSE,148,1.0,-999.0,76,-99.99,,,0.00,weatherlink.com 1.10,2013-02-22 17:16:00,
2013-02-22 10:31:00,29.8,23.0,29.98,SSE,148,2.0,-999.0,76,-99.99,,,0.00,weatherlink.com 1.10,2013-02-22 17:31:00,
2013-02-22 10:46:00,30.9,24.0,29.98,SSE,149,5.0,-999.0,75,-99.99,,,0.00,weatherlink.com 1.10,2013-02-22 17:46:00,
2013-02-22 11:01:00,31.7,24.0,29.98,SSE,149,2.0,-999.0,73,-99.99,,,0.00,weatherlink.com 1.10,2013-02-22 18:01:00,
2013-02-22 11:16:00,32.4,25.0,29.98,SSE,152,1.0,-999.0,73,-99.99,,,0.00,weatherlink.com 1.10,2013-02-22 18:16:00,
2013-02-22 11:31:00,33.0,25.0,29.98,SSE,162,6.0,-999.0,72,-99.99,,,0.00,weatherlink.com 1.10,2013-02-22 18:31:00,
2013-02-22 11:46:00,32.9,25.0,29.97,SSE,162,2.0,-999.0,74,-99.99,,,0.00,weatherlink.com 1.10,2013-02-22 18:46:00,
2013-02-22 12:01:00,34.3,26.0,29.95,SSE,163,1.0,-999.0,72,-99.99,,,0.00,weatherlink.com 1.10,2013-02-22 19:01:00,
2013-02-22 12:16:00,35.1,27.0,29.95,SSE,163,4.0,-999.0,71,-99.99,,,0.00,weatherlink.com 1.10,2013-02-22 19:16:00,
2013-02-22 12:31:00,35.2,26.0,29.94,SSE,163,0.0,-999.0,70,-99.99,,,0.00,weatherlink.com 1.10,2013-02-22 19:31:00,
2013-02-22 12:46:00,35.2,26.0,29.93,SSE,163,2.0,-999.0,70,-99.99,,,0.00,weatherlink.com 1.10,2013-02-22 19:46:00,
2013-02-22 13:01:00,36.1,28.0,29.92,SSE,163,4.0,-999.0,71,-99.99,,,0.00,weatherlink.com 1.10,2013-02-22 20:01:00,
2013-02-22 13:16:00,36.9,28.0,29.91,SSE,163,1.0,-999.0,70,-99.99,,,0.00,weatherlink.com 1.10,2013-02-22 20:16:00,
2013-02-22 13:31:00,38.2,28.0,29.90,SSE,164,2.0,-999.0,67,-99.99,,,0.00,weatherlink.com 1.10,2013-02-22 20:31:00,
2013-02-22 13:46:00,38.3,27.0,29.90,SSE,162,4.0,-999.0,65,-99.99,,,0.00,weatherlink.com 1.10,2013-02-22 20:46:00,
2013-02-22 14:01:00,38.4,27.0,29.89,SSE,148,2.0,-999.0,65,-99.99,,,0.00,weatherlink.com 1.10,2013-02-22 21:01:00,
2013-02-22 14:16:00,39.0,28.0,29.89,SSE,157,7.0,-999.0,64,-99.99,,,0.00,weatherlink.com 1.10,2013-02-22 21:16:00,
2013-02-22 14:32:00,39.6,28.0,29.88,SSE,162,5.0,-999.0,63,-99.99,,,0.00,weatherlink.com 1.10,2013-02-22 21:32:00,
2013-02-22 14:47:00,39.9,28.0,29.88,SSE,162,0.0,-999.0,63,-99.99,,,0.00,weatherlink.com 1.10,2013-02-22 21:47:00,
2013-02-22 15:02:00,40.2,28.0,29.87,SSE,162,2.0,-999.0,62,-99.99,,,0.00,weatherlink.com 1.10,2013-02-22 22:02:00,
2013-02-22 15:17:00,40.4,28.0,29.87,SSE,162,0.0,-999.0,61,-99.99,,,0.00,weatherlink.com 1.10,2013-02-22 22:17:00,
2013-02-22 15:32:00,40.2,27.0,29.86,SSE,162,1.0,-999.0,60,-99.99,,,0.00,weatherlink.com 1.10,2013-02-22 22:32:00,
2013-02-22 15:47:00,39.8,27.0,29.86,SSE,162,0.0,-999.0,61,-99.99,,,0.00,weatherlink.com 1.10,2013-02-22 22:47:00,
2013-02-22 16:02:00,39.5,27.0,29.86,SSE,162,4.0,-999.0,61,-99.99,,,0.00,weatherlink.com 1.10,2013-02-22 23:02:00,
2013-02-22 16:17:00,39.4,27.0,29.86,SSE,162,1.0,-999.0,62,-99.99,,,0.00,weatherlink.com 1.10,2013-02-22 23:17:00,
2013-02-22 16:32:00,39.5,28.0,29.85,SSE,162,0.0,-999.0,63,-99.99,,,0.00,weatherlink.com 1.10,2013-02-22 23:32:00,
2013-02-22 16:47:00,39.7,27.0,29.85,SSE,162,0.0,-999.0,60,-99.99,,,0.00,weatherlink.com 1.10,2013-02-22 23:47:00,
2013-02-22 17:02:00,39.8,27.0,29.85,SSE,162,0.0,-999.0,61,-99.99,,,0.00,weatherlink.com 1.10,2013-02-23 00:02:00,
2013-02-22 17:17:00,39.5,26.0,29.85,SSE,162,2.0,-999.0,60,-99.99,,,0.00,weatherlink.com 1.10,2013-02-23 00:17:00,
2013-02-22 17:32:00,38.1,27.0,29.85,SSE,162,0.0,-999.0,64,-99.99,,,0.00,weatherlink.com 1.10,2013-02-23 00:32:00,
2013-02-22 17:47:00,36.7,27.0,29.85,SSE,162,0.0,-999.0,69,-99.99,,,0.00,weatherlink.com 1.10,2013-02-23 00:47:00,
2013-02-22 18:02:00,35.2,27.0,29.85,SSE,162,0.0,-999.0,73,-99.99,,,0.00,weatherlink.com 1.10,2013-02-23 01:02:00,
2013-02-22 18:17:00,33.9,27.0,29.84,SSE,162,0.0,-999.0,77,-99.99,,,0.00,weatherlink.com 1.10,2013-02-23 01:17:00,
2013-02-22 18:32:00,32.7,27.0,29.84,SSE,162,0.0,-999.0,79,-99.99,,,0.00,weatherlink.com 1.10,2013-02-23 01:32:00,
2013-02-22 18:47:00,31.9,26.0,29.83,SSE,162,0.0,-999.0,80,-99.99,,,0.00,weatherlink.com 1.10,2013-02-23 01:47:00,
2013-02-22 19:02:00,31.0,26.0,29.83,SSE,162,0.0,-999.0,82,-99.99,,,0.00,weatherlink.com 1.10,2013-02-23 02:02:00,
2013-02-22 19:17:00,30.3,26.0,29.83,SSE,162,0.0,-999.0,83,-99.99,,,0.00,weatherlink.com 1.10,2013-02-23 02:17:00,
2013-02-22 19:32:00,29.7,25.0,29.82,SSE,162,0.0,-999.0,84,-99.99,,,0.00,weatherlink.com 1.10,2013-02-23 02:32:00,
2013-02-22 19:47:00,29.1,25.0,29.82,SSE,162,0.0,-999.0,84,-99.99,,,0.00,weatherlink.com 1.10,2013-02-23 02:47:00,
2013-02-22 20:02:00,28.3,24.0,29.81,SSE,162,0.0,-999.0,84,-99.99,,,0.00,weatherlink.com 1.10,2013-02-23 03:02:00,
2013-02-22 20:17:00,27.7,24.0,29.81,SSE,162,0.0,-999.0,84,-99.99,,,0.00,weatherlink.com 1.10,2013-02-23 03:17:00,
2013-02-22 20:32:00,27.4,24.0,29.80,SSE,162,1.0,-999.0,85,-99.99,,,0.00,weatherlink.com 1.10,2013-02-23 03:32:00,
2013-02-22 20:47:00,27.1,24.0,29.80,SSE,162,1.0,-999.0,86,-99.99,,,0.00,weatherlink.com 1.10,2013-02-23 03:47:00,
2013-02-22 21:02:00,26.8,23.0,29.80,SSE,162,0.0,-999.0,86,-99.99,,,0.00,weatherlink.com 1.10,2013-02-23 04:02:00,
2013-02-22 21:17:00,26.5,23.0,29.79,SSE,162,0.0,-999.0,86,-99.99,,,0.00,weatherlink.com 1.10,2013-02-23 04:17:00,
2013-02-22 21:32:00,26.2,23.0,29.79,SSE,162,0.0,-999.0,86,-99.99,,,0.00,weatherlink.com 1.10,2013-02-23 04:32:00,
2013-02-22 21:47:00,26.1,22.0,29.78,SSE,162,0.0,-999.0,85,-99.99,,,0.00,weatherlink.com 1.10,2013-02-23 04:47:00,
2013-02-22 22:02:00,26.0,22.0,29.78,SSE,162,0.0,-999.0,85,-99.99,,,0.00,weatherlink.com 1.10,2013-02-23 05:02:00,
2013-02-22 22:17:00,25.8,22.0,29.78,SSE,162,0.0,-999.0,85,-99.99,,,0.00,weatherlink.com 1.10,2013-02-23 05:17:00,
2013-02-22 22:32:00,25.5,22.0,29.78,SSE,162,0.0,-999.0,85,-99.99,,,0.00,weatherlink.com 1.10,2013-02-23 05:32:00,
2013-02-22 22:47:00,24.9,21.0,29.77,SSE,162,0.0,-999.0,85,-99.99,,,0.00,weatherlink.com 1.10,2013-02-23 05:47:00,
2013-02-22 23:02:00,24.5,21.0,29.77,SSE,162,0.0,-999.0,86,-99.99,,,0.00,weatherlink.com 1.10,2013-02-23 06:02:00,
2013-02-22 23:32:00,23.8,20.0,29.76,SSE,162,0.0,-999.0,86,-99.99,,,0.00,weatherlink.com 1.10,2013-02-23 06:32:00,
2013-02-22 23:47:00,23.3,20.0,29.76,SSE,162,0.0,-999.0,86,-99.99,,,0.00,weatherlink.com 1.10,2013-02-23 06:47:00,